RH
40 40 42 44 47 51 53 56 60 66 77 89 96 99 100 100 99 99 97 93 89 86 86 86 87 90 95 99 100 100 100 100 100 100 100 100 100 99 99 96 89 83 81 80 75 70 66 59 50 41 31 25 24 22 21 22 22 21 19 19 19 19 21
41 42 44 45 48 51 55 58 63 72 82 89 94 98 100 100 99 99 98 95 90 87 87 87 89 94 98 99 100 100 100 100 100 100 100 100 100 100 100 100 93 83 80 78 72 68 69 67 61 53 43 35 32 32 35 38 39 37 32 25 20 14 11
42 44 46 47 49 53 57 61 67 75 84 90 95 97 98 99 99 99 98 95 91 89 88 86 88 95 100 100 100 97 93 93 97 100 100 100 100 100 99 100 95 85 81 78 68 61 64 68 67 64 60 54 48 48 54 59 60 53 41 28 19 15 11
44 46 48 49 51 54 58 63 69 77 86 93 97 98 97 99 99 97 96 94 92 91 86 84 87 94 100 98 93 85 82 88 96 100 101 100 101 101 100 99 93 86 82 74 59 52 57 64 66 66 69 71 70 70 71 70 66 55 40 26 18 14 12
46 48 50 51 52 56 60 65 73 81 88 94 98 98 97 98 99 98 97 95 93 89 83 80 84 90 92 88 81 76 76 83 90 95 96 96 95 96 96 95 91 85 78 65 51 46 52 61 68 72 77 83 85 85 81 74 65 50 34 22 16 13 11
49 50 52 53 56 59 63 69 76 84 89 94 98 98 97 97 99 99 99 95 91 87 82 78 79 81 80 77 75 74 74 75 77 80 81 81 83 87 90 91 88 80 72 62 54 54 60 69 77 84 87 91 92 92 88 77 59 39 24 17 14 13 11
51 52 53 56 59 62 66 72 79 86 92 96 99 99 98 97 97 98 98 96 92 87 82 78 78 77 76 75 75 75 74 72 70 69 68 70 77 83 87 88 84 78 74 69 62 64 73 82 88 93 95 96 97 95 88 70 47 29 20 15 13 12 11
54 55 55 58 61 63 67 74 82 87 93 98 98 99 100 99 98 98 97 96 93 88 82 80 79 79 78 76 74 73 71 67 63 59 59 69 83 90 91 90 85 79 75 70 66 72 84 92 96 98 98 99 98 95 84 64 41 27 19 15 12 11 11
56 57 57 59 62 64 67 74 83 90 95 98 99 99 100 100 100 100 98 95 92 88 84 81 80 80 79 76 74 72 65 57 55 55 56 65 76 79 78 76 74 71 68 69 76 86 94 97 97 95 94 93 92 89 81 62 40 26 18 14 12 12 12
59 59 60 62 63 65 68 74 84 94 98 99 100 100 100 100 100 100 98 94 90 88 85 82 81 80 79 76 73 67 56 45 46 52 54 56 60 62 64 68 72 76 79 84 92 97 96 94 91 87 85 84 82 80 72 53 34 23 18 14 14 13 13
61 62 62 64 65 66 69 75 85 96 100 100 100 100 100 100 100 100 98 95 92 89 86 84 82 80 79 75 67 56 45 38 40 46 53 61 70 76 82 86 89 92 94 96 97 97 94 89 84 79 76 74 74 71 60 45 33 26 21 18 17 15 14
65 65 66 67 67 69 72 77 87 97 100 100 100 100 100 100 100 100 99 97 93 90 88 86 84 81 77 69 56 43 36 36 41 50 61 74 84 90 93 94 96 96 96 95 94 91 87 82 75 70 67 65 64 60 50 41 35 30 25 22 19 17 16
68 68 68 69 71 73 75 79 88 97 100 100 100 100 100 100 100 100 99 97 94 91 89 88 86 81 71 57 43 36 36 39 47 60 76 88 93 94 93 93 94 93 89 87 85 81 77 70 63 59 56 52 47 42 37 33 30 27 24 22 20 19 19
70 70 71 73 74 77 79 81 88 97 100 100 100 100 100 100 100 100 99 97 94 92 90 89 87 80 67 52 41 40 43 51 64 78 89 93 93 93 93 92 90 88 83 79 75 71 65 58 51 45 40 36 33 31 30 29 28 27 27 26 25 25 26
72 72 74 75 77 80 83 86 92 98 100 100 100 100 100 100 100 100 99 96 93 93 93 89 82 73 64 56 49 46 52 65 82 92 94 94 94 93 92 90 89 86 83 79 74 67 57 49 43 38 33 32 31 31 33 34 35 36 36 35 35 35 33
73 73 75 77 80 83 87 91 95 99 100 100 100 100 100 100 100 100 99 94 92 94 93 83 71 63 58 54 53 56 67 82 93 96 96 95 94 93 92 91 89 86 82 75 68 60 51 44 40 38 36 36 38 40 43 45 46 46 45 45 42 39 36
76 77 80 81 83 86 90 95 98 100 100 100 100 100 100 100 100 100 99 93 92 95 90 76 64 57 54 57 65 76 86 94 98 98 98 97 95 94 93 91 87 82 73 64 56 52 49 46 44 44 45 47 49 51 52 51 50 48 46 43 39 35 32
82 84 85 85 86 90 94 98 100 100 100 100 100 100 100 100 99 100 97 93 92 92 84 71 61 57 61 70 81 89 94 97 99 99 98 97 95 93 90 85 79 71 63 59 57 56 56 56 55 55 54 54 53 51 49 47 44 42 39 36 32 28 25
85 86 87 88 90 93 96 98 100 100 100 100 100 100 100 100 100 99 96 93 91 86 75 65 59 63 74 84 90 94 97 99 100 99 98 96 92 88 83 77 72 67 64 64 64 63 62 60 58 56 54 51 48 45 42 38 34 31 29 26 24 22 19
87 88 89 91 94 96 97 98 100 100 100 100 100 100 100 100 100 99 96 92 89 80 68 61 61 70 82 90 94 99 100 100 100 99 96 92 86 81 78 75 72 71 70 68 66 63 61 57 53 51 48 45 41 36 31 28 25 22 21 19 18 16 14
90 91 92 95 98 99 99 99 100 100 100 100 100 100 100 100 100 99 96 92 87 77 67 63 65 73 82 89 95 100 100 100 100 97 92 87 84 82 81 79 77 75 71 68 63 58 54 49 45 42 39 34 30 26 23 21 19 17 16 15 14 13 13
92 94 96 99 100 100 98 99 100 100 100 100 100 100 100 100 100 100 96 92 86 79 72 70 71 77 83 90 96 100 100 100 98 93 89 88 87 86 84 79 75 71 65 60 54 48 43 40 36 33 30 27 24 22 21 20 18 17 16 15 14 14 13
95 98 100 100 100 100 98 99 100 100 100 100 100 100 100 99 100 100 98 93 88 84 81 80 79 82 88 94 98 100 101 99 97 94 92 90 88 86 81 74 67 61 54 49 44 40 37 34 32 30 28 26 24 23 22 21 19 18 17 16 16 15 15
99 100 100 100 100 100 99 100 100 100 100 100 100 100 100 99 99 100 99 95 91 89 87 85 84 86 93 99 100 100 101 99 97 95 93 91 88 83 75 66 58 51 47 43 40 38 36 35 34 32 31 29 28 27 26 24 23 21 20 19 18 17 16
100 100 100 100 100 100 100 100 100 100 100 100 100 100 100 100 100 100 100 96 93 90 88 87 88 92 97 100 100 100 101 100 99 97 94 90 85 78 68 59 52 47 45 43 41 41 41 41 40 39 37 36 34 33 31 29 27 26 24 23 21 20 19
100 100 100 100 100 100 100 100 100 100 100 100 100 100 100 100 100 100 100 97 93 89 87 89 95 99 100 100 100 100 100 100 99 96 91 84 77 70 63 56 51 47 46 45 46 47 48 49 49 48 46 44 41 39 37 35 33 32 30 28 26 25 23
100 100 100 100 100 100 100 100 100 100 100 100 100 100 100 100 100 100 99 97 92 88 88 93 99 101 100 100 100 100 100 101 99 93 86 79 72 66 60 55 52 51 51 52 54 55 55 56 55 54 52 50 47 44 42 40 38 36 34 31 29 27 25
100 100 100 100 100 100 100 100 100 99 100 100 100 100 101 101 100 100 99 96 91 88 91 97 100 100 100 101 100 100 101 100 96 90 84 78 73 66 62 60 59 59 60 61 61 60 60 60 60 59 58 55 53 50 47 44 41 38 35 32 30 28 27
100 100 100 100 100 100 100 100 99 99 100 101 100 100 101 101 100 100 99 96 93 93 97 100 100 100 100 100 100 100 101 99 94 89 84 80 74 69 67 67 67 67 68 67 67 66 67 67 67 66 64 61 58 55 51 47 44 40 37 35 32 30 28
100 100 100 100 100 100 100 100 100 100 100 100 100 100 100 100 100 100 100 99 98 99 100 100 100 100 100 100 100 100 100 99 95 90 85 81 77 75 75 75 75 74 73 73 73 73 74 74 72 70 68 65 62 60 56 53 49 46 42 38 35 32 29
100 100 100 100 100 100 100 100 100 101 101 101 100 100 100 100 100 100 100 101 100 100 100 100 100 100 100 100 100 100 100 100 96 91 88 85 82 82 83 82 80 78 78 79 79 78 77 77 75 73 71 69 66 64 60 57 52 48 44 39 35 33 31
100 100 100 100 100 100 100 100 100 100 101 100 100 100 100 100 100 100 100 100 100 100 100 100 100 100 100 100 101 100 100 100 98 93 90 88 87 87 86 84 82 83 84 84 83 81 81 80 78 76 74 72 69 65 60 56 52 46 41 38 35 33 32
97 98 98 99 100 100 100 100 100 100 100 100 100 100 100 100 100 100 100 100 100 100 100 100 100 100 99 98 98 98 98 99 97 94 91 89 89 88 87 86 87 88 87 86 84 83 83 82 80 78 75 72 68 64 58 53 48 42 38 35 34 34 33
94 95 96 98 99 99 99 100 100 100 100 100 100 100 100 100 100 100 100 100 100 100 99 98 95 94 94 94 95 97 99 99 97 94 92 90 90 90 89 90 91 90 88 87 87 88 87 84 81 79 75 71 67 61 55 49 42 37 35 34 34 35 35
95 96 96 97 98 99 99 100 100 100 100 100 100 100 100 100 100 100 99 97 96 97 98 96 94 93 93 95 97 100 101 101 99 97 95 95 95 95 96 97 97 97 96 94 93 91 88 84 81 78 74 70 65 58 52 46 40 37 35 35 36 37 38
95 95 95 95 96 99 101 101 101 100 100 100 100 100 100 100 100 100 99 97 96 97 99 100 99 99 98 99 101 101 101 101 101 100 100 99 100 100 100 100 101 101 99 97 93 90 87 84 81 78 74 70 64 58 53 47 43 41 40 39 40 41 43
Wind_Speed
22 22 22 22 23 24 25 26 25 24 24 25 26 26 25 25 25 26 26 26 25 24 25 26 27 27 29 29 30 31 31 31 30 31 32 32 31 31 31 31 32 30 25 23 24 28 31 32 31 30 30 29 28 27 26 25 24 24 24 25 25 26 26
23 23 23 23 23 24 25 25 25 24 24 24 25 25 25 25 25 26 26 25 24 24 24 25 26 26 27 27 28 29 29 29 29 30 31 31 31 32 32 31 33 31 27 25 25 28 31 32 31 31 30 30 29 28 27 26 25 25 25 25 26 26 25
24 23 23 23 23 24 24 25 25 24 23 23 23 24 25 25 25 25 25 25 24 24 24 24 24 25 25 25 26 26 27 27 27 28 30 31 32 32 30 30 32 32 29 27 26 28 32 33 33 32 31 31 30 29 28 27 26 25 25 26 26 26 25
25 24 23 23 24 24 24 25 24 23 22 22 23 24 25 25 25 25 25 25 25 25 24 24 24 23 23 23 24 24 24 25 26 26 28 29 30 30 29 30 31 31 29 25 24 26 30 32 33 33 32 32 31 30 29 27 26 25 25 26 26 25 25
26 24 23 23 24 24 24 24 24 23 23 23 23 24 25 25 26 26 26 25 25 24 24 24 23 22 22 22 22 22 23 23 24 25 26 27 27 28 29 30 30 29 26 22 21 24 28 30 32 32 32 32 31 30 29 27 26 25 26 26 26 25 23
26 24 23 23 23 23 23 23 23 23 23 22 23 24 25 25 25 26 26 25 25 24 24 23 22 21 21 21 20 21 21 22 23 24 25 26 27 28 29 29 29 28 26 23 22 23 25 28 30 31 32 32 31 30 28 27 26 25 25 26 25 24 22
25 24 23 23 23 23 23 23 23 22 22 22 23 24 25 25 26 25 25 25 25 24 24 22 22 21 20 20 20 20 20 21 22 23 25 27 28 29 29 29 28 27 26 26 25 25 25 26 29 31 32 31 31 29 28 26 26 25 25 25 24 23 22
25 25 24 23 23 22 23 23 22 22 21 21 22 23 24 25 26 26 25 25 24 24 23 22 21 21 20 20 19 19 19 19 20 22 25 27 28 28 28 28 27 27 28 28 27 26 26 27 29 31 31 30 30 30 29 27 26 25 25 24 23 22 21
26 25 24 23 22 22 23 23 22 21 21 21 22 23 24 25 25 25 25 25 24 24 23 22 22 21 20 20 19 19 18 17 18 20 22 24 25 25 25 26 26 27 28 28 28 27 27 27 29 30 31 31 31 31 29 27 26 25 23 22 21 20 19
27 26 24 22 22 22 22 22 21 20 21 22 23 24 25 25 25 25 25 25 24 24 23 23 22 21 21 20 20 20 19 19 19 19 19 19 21 22 23 25 26 27 28 28 28 28 28 28 29 30 30 30 29 28 26 25 24 23 22 21 20 20 19
27 25 23 22 21 22 22 22 21 20 21 23 24 25 25 26 26 25 25 25 24 23 23 23 23 22 22 22 22 22 22 22 22 22 21 21 21 22 23 24 25 26 27 27 27 27 28 28 29 28 28 27 26 25 25 24 23 22 21 20 19 19 18
27 25 23 22 21 21 22 22 21 21 22 23 24 25 25 25 26 26 25 25 24 24 23 23 24 24 24 24 24 25 26 25 25 24 23 23 23 23 24 23 23 23 23 25 26 26 26 26 26 26 26 25 24 24 24 23 22 21 20 19 18 18 18
26 25 23 22 21 21 22 22 21 21 23 24 25 26 26 26 26 26 26 25 25 24 24 23 24 26 26 27 27 27 27 26 25 25 24 23 23 23 23 23 22 21 19 19 21 23 24 23 22 22 22 21 21 21 21 21 21 20 19 18 18 19 18
26 24 23 22 21 21 21 22 22 22 23 25 26 26 26 26 26 26 26 25 24 24 24 24 25 27 27 28 28 28 27 26 25 25 24 23 22 22 22 22 22 22 20 18 18 19 19 19 20 19 18 18 19 20 20 19 19 18 18 18 18 19 19
25 24 23 22 21 21 21 22 22 23 24 25 26 26 26 26 26 26 26 25 25 23 23 24 26 27 27 28 28 28 27 26 25 24 23 22 22 22 22 22 22 22 22 21 21 20 18 17 18 18 18 19 20 20 19 19 18 18 19 19 19 20 20
25 24 23 22 22 22 22 22 22 24 25 26 26 27 27 27 27 27 26 26 25 24 24 25 27 27 27 27 27 27 26 25 24 23 23 23 22 22 22 22 22 22 22 21 20 21 20 19 19 20 20 20 20 20 20 20 19 19 20 20 20 21 20
24 24 23 22 22 22 22 22 23 24 26 26 27 28 28 27 27 28 27 26 26 25 26 27 28 28 28 27 26 25 24 24 24 23 23 23 23 23 23 23 23 22 22 21 21 21 21 21 21 21 21 21 21 21 20 20 20 20 20 20 21 20 20
24 24 24 23 23 22 22 22 23 25 26 27 27 28 28 27 28 28 27 27 27 26 27 28 28 28 28 27 26 25 24 24 24 25 24 24 24 24 24 24 23 23 23 23 22 22 22 22 22 21 21 21 21 20 20 20 20 20 20 20 19 19 19
25 25 25 24 23 22 23 23 24 25 27 27 27 29 28 27 28 28 28 29 29 29 29 30 30 30 28 27 26 25 25 25 25 25 25 24 24 24 24 24 23 23 22 22 22 22 22 21 21 21 21 20 19 19 19 19 19 19 19 19 18 18 18
25 25 25 24 24 23 24 24 25 26 27 27 28 29 28 27 29 29 29 30 31 31 32 32 32 31 30 28 26 26 26 26 26 26 25 24 24 24 23 23 22 22 22 21 21 21 20 20 20 20 20 19 19 19 19 19 19 18 18 18 18 18 18
25 26 26 25 25 25 24 25 26 26 27 27 28 29 27 27 29 29 30 31 32 33 33 33 33 32 31 29 28 27 27 26 26 26 25 24 23 22 21 21 22 22 22 21 21 20 20 20 20 19 19 19 19 19 19 19 19 18 18 18 18 18 18
25 26 27 27 26 25 25 25 26 27 27 27 28 28 26 26 28 28 29 31 33 33 33 33 32 32 30 29 29 28 28 27 26 26 26 25 24 23 23 23 23 22 22 22 21 21 20 20 19 18 18 18 18 18 19 19 18 17 18 18 18 18 18
26 27 27 28 27 26 25 25 27 28 27 27 28 27 26 25 27 28 30 32 32 32 31 31 30 29 29 29 30 30 29 28 27 27 27 27 26 26 26 25 24 23 22 22 21 21 20 19 18 18 18 18 18 19 19 18 18 18 18 18 18 18 18
26 27 28 29 28 27 26 26 27 27 27 27 28 27 26 25 26 28 30 31 31 30 29 28 27 27 28 29 31 31 30 29 29 29 29 28 28 27 26 25 24 24 23 22 22 21 20 19 18 18 18 18 19 19 18 18 18 18 18 19 19 19 18
26 27 28 29 29 28 27 26 26 26 26 26 27 27 26 26 27 28 30 31 31 29 28 26 26 27 28 30 31 31 31 30 30 29 29 28 28 27 26 25 24 24 23 22 22 20 19 18 18 18 19 19 19 18 18 18 19 19 20 20 21 21 20
26 27 28 28 28 28 27 26 25 25 25 26 27 27 27 27 27 28 29 30 30 29 28 27 27 28 30 31 32 32 32 31 30 30 29 28 27 27 26 25 24 23 23 22 21 20 19 19 19 19 19 19 19 18 19 19 20 21 21 22 23 23 22
25 26 26 26 26 27 26 25 25 24 24 25 26 27 28 28 28 28 29 30 31 31 29 29 28 29 31 32 33 32 31 31 30 30 30 29 28 26 25 24 24 23 22 21 21 20 19 20 20 19 19 19 19 19 20 20 21 22 22 23 24 24 23
22 23 23 23 23 24 24 24 23 22 22 22 24 27 29 30 30 30 31 32 32 31 30 29 30 30 31 33 33 32 32 31 31 31 30 29 28 26 25 25 24 23 23 22 21 20 20 20 20 19 19 19 19 20 21 21 21 22 23 24 24 24 23
20 21 21 21 21 22 23 23 21 18 18 19 22 26 29 30 31 31 31 31 31 30 30 31 31 31 32 33 34 33 33 33 32 31 29 28 27 26 25 25 24 23 23 22 21 21 20 20 20 20 20 20 20 21 22 22 22 22 23 24 25 25 24
18 19 19 20 20 20 21 21 19 17 16 17 18 23 28 30 30 30 30 30 29 30 31 31 31 32 33 34 34 34 34 33 33 32 30 29 28 27 25 24 23 23 22 22 21 21 20 20 20 21 21 21 21 21 22 23 23 23 24 25 26 26 26
14 16 16 17 18 19 19 18 17 16 16 15 15 19 24 29 30 29 28 28 29 30 31 31 31 32 33 34 35 34 33 33 32 30 29 28 27 26 24 23 23 22 22 21 21 21 21 21 21 22 22 22 22 22 23 24 24 24 25 25 26 26 26
12 13 13 14 16 17 17 16 15 15 15 14 14 15 20 26 30 29 27 27 28 29 30 29 30 31 33 33 33 32 31 30 29 28 27 26 25 24 23 23 22 21 21 22 22 22 22 22 22 22 23 23 23 23 24 24 25 25 25 26 26 26 26
10 10 11 11 12 13 14 14 13 12 12 12 12 12 15 21 26 28 27 28 28 28 27 26 27 28 29 30 31 30 30 29 28 27 26 25 24 24 23 22 22 22 23 24 24 24 24 23 23 23 23 23 24 24 24 24 25 25 26 26 26 27 27
9 9 9 9 10 10 11 11 10 10 10 10 10 11 12 15 21 25 27 27 27 26 25 24 25 26 27 28 29 29 30 29 28 27 26 25 25 24 24 24 24 25 25 25 25 24 24 23 23 24 23 24 24 24 24 24 25 25 26 26 27 27 27
9 8 8 8 8 8 9 9 8 9 9 9 10 11 12 15 19 23 26 27 27 26 26 26 27 27 27 28 28 29 29 29 27 26 26 26 25 25 25 25 25 26 26 25 24 24 24 23 24 24 24 24 24 24 24 24 25 25 25 26 26 27 27
9 8 8 7 7 7 8 8 8 8 8 8 9 12 14 16 18 22 25 27 28 28 28 28 28 27 27 27 27 27 27 27 26 25 25 25 24 24 24 24 24 24 24 24 24 24 24 23 24 24 23 24 24 25 24 24 24 25 25 25 26 26 27
Wind_Direction
281 283 284 284 283 281 280 278 275 269 260 255 253 252 252 253 253 253 252 251 250 253 256 256 252 247 243 241 240 241 243 244 243 242 240 240 238 235 233 232 231 231 231 231 227 219 215 212 209 208 209 208 207 206 206 208 211 213 216 220 221 222 224
279 281 282 283 284 282 281 279 275 269 261 257 254 253 253 254 254 254 253 252 251 253 255 254 250 246 242 240 240 240 241 241 240 240 239 238 235 232 232 231 230 231 231 231 226 215 210 210 210 209 209 209 208 208 208 210 214 217 219 222 225 226 227
277 279 281 283 285 284 282 279 275 269 262 257 255 253 253 255 255 254 253 252 252 252 252 250 247 243 240 239 239 239 240 238 237 239 239 236 234 233 233 231 230 232 231 229 225 214 207 207 208 210 211 211 210 210 211 214 216 218 220 222 224 226 227
275 277 280 283 286 285 283 279 274 268 263 258 255 254 255 255 256 255 254 254 252 251 249 245 242 239 237 237 237 237 237 235 234 235 236 235 234 234 233 230 229 232 232 231 227 214 206 205 208 210 211 212 211 211 212 214 215 217 220 222 224 225 227
273 276 280 284 285 285 282 278 272 266 262 257 254 254 255 255 256 256 254 252 250 248 246 243 239 235 233 234 236 236 235 234 233 234 234 234 233 231 229 227 226 226 227 228 226 217 209 208 210 211 211 211 212 212 212 212 213 217 220 222 224 225 226
272 276 279 282 283 282 280 276 270 265 262 257 253 254 255 256 256 256 254 251 248 246 244 241 237 234 233 232 234 236 237 236 235 234 233 232 231 228 226 223 219 218 219 222 224 222 218 217 215 214 212 211 211 212 212 211 211 214 217 221 223 225 226
270 274 276 278 279 280 279 273 267 264 261 258 255 255 256 256 256 255 254 251 248 245 241 239 236 235 234 234 235 237 237 236 234 232 230 228 227 225 222 219 216 215 219 224 225 225 227 227 222 215 212 211 210 210 211 211 212 213 216 219 223 225 227
268 270 273 277 279 280 279 272 265 263 260 257 257 256 257 257 256 254 252 250 248 245 240 238 236 236 235 235 236 237 234 232 232 229 223 220 219 219 218 218 218 218 221 225 228 230 229 227 221 215 211 210 210 210 210 209 211 214 217 220 223 225 228
266 269 272 276 279 280 279 272 265 261 257 255 255 256 256 257 256 253 250 248 246 244 240 238 236 235 234 231 230 230 226 223 224 225 220 214 211 211 213 216 219 222 225 228 229 230 226 220 216 213 210 210 211 211 211 211 212 215 218 220 223 226 229
264 268 272 276 279 281 279 272 264 258 254 251 253 254 254 255 254 252 249 246 244 242 240 238 236 233 230 226 223 220 215 209 208 208 210 211 212 213 217 222 226 229 232 233 231 228 222 217 214 212 211 212 213 213 212 212 214 217 218 220 223 226 229
264 267 271 275 279 280 278 272 263 254 250 249 251 253 253 253 252 249 247 244 242 241 240 238 235 230 225 220 216 212 207 204 203 203 207 214 220 224 228 232 235 236 234 231 228 225 222 219 216 213 210 211 212 212 211 213 216 218 220 222 225 229 232
264 267 271 273 276 278 276 272 261 251 248 248 250 252 252 252 250 247 245 243 240 238 237 236 233 227 220 215 212 210 208 206 208 212 218 223 227 229 230 231 233 236 235 232 228 223 220 219 216 212 209 207 208 210 211 213 216 218 221 224 227 232 235
264 267 271 274 277 277 275 271 262 250 247 248 250 251 251 251 249 246 244 241 238 236 234 233 230 223 216 212 210 210 211 213 217 222 226 229 230 230 230 228 226 225 227 231 230 225 220 215 211 210 211 209 209 212 214 215 217 218 221 223 225 231 236
266 268 271 274 276 275 273 270 262 251 248 249 250 251 251 250 247 245 242 239 236 234 232 230 227 222 217 213 212 213 216 220 224 228 230 230 229 228 227 225 223 218 213 213 216 217 216 213 209 208 210 210 210 213 215 217 219 220 222 223 226 231 236
266 267 270 273 274 272 269 266 259 251 249 250 251 250 250 248 246 243 240 236 232 229 228 226 224 223 221 219 218 220 222 225 229 231 232 230 228 227 225 221 219 216 212 210 208 205 205 208 209 207 208 210 211 213 215 218 220 222 225 228 230 234 237
266 267 269 271 271 269 266 263 257 251 249 250 250 250 249 247 245 242 238 233 227 223 221 221 220 222 224 225 225 226 227 230 232 233 231 230 227 225 223 219 215 212 210 209 207 203 201 203 206 208 209 212 214 216 219 220 222 225 228 232 235 237 239
265 266 266 267 269 268 266 262 256 251 249 249 250 250 248 245 243 241 237 231 225 220 217 217 219 222 224 226 227 229 231 232 233 231 230 228 226 222 219 216 213 210 207 205 204 204 204 205 207 209 212 215 217 220 222 223 225 228 231 233 237 240 243
263 263 264 267 269 269 266 262 256 251 250 249 249 250 248 245 242 239 234 228 222 217 215 216 219 221 224 227 229 232 234 234 232 230 228 226 224 221 218 215 213 211 209 207 206 206 208 210 211 213 216 218 221 223 225 227 229 232 234 236 239 243 248
263 264 266 268 270 270 268 263 256 250 249 248 248 248 246 243 240 237 231 225 218 213 213 215 217 219 222 227 231 234 235 234 231 229 227 225 222 219 217 215 214 213 212 212 212 212 213 214 215 217 219 221 223 226 228 231 233 235 237 239 241 245 250
263 264 266 267 268 268 267 263 257 251 249 249 248 248 246 241 238 235 229 223 217 213 212 213 216 219 223 227 230 232 233 232 230 226 224 222 221 220 219 216 214 213 213 214 215 215 216 217 217 220 222 223 226 228 231 233 235 236 238 240 243 246 249
263 264 265 265 266 267 265 262 258 253 251 249 249 250 247 241 238 235 229 223 219 215 213 215 217 222 226 228 229 230 229 228 226 222 219 218 217 217 217 216 215 214 214 215 216 217 218 219 220 223 226 228 230 232 234 236 237 238 240 242 246 250 252
263 263 264 264 266 266 265 263 260 256 253 250 250 251 249 243 239 235 228 223 221 219 218 219 222 226 230 231 231 230 227 224 221 218 215 213 211 210 210 211 213 214 214 215 216 218 221 223 225 228 231 233 236 237 239 241 242 244 246 248 250 254 258
263 264 265 266 267 268 267 265 262 259 255 251 250 251 249 244 239 232 226 224 224 224 224 225 228 231 234 235 233 230 226 221 218 215 213 211 210 209 209 209 210 212 213 215 217 220 223 225 228 232 235 238 241 243 245 248 249 251 253 255 258 262 265
266 266 266 267 268 268 268 267 265 262 257 253 251 250 248 243 236 230 225 223 225 227 228 230 233 235 236 237 234 230 225 219 216 214 214 213 212 211 211 211 211 212 213 216 218 222 225 227 230 234 238 241 245 249 253 257 260 262 264 265 267 268 268
270 269 268 269 269 270 270 270 269 265 259 253 250 249 247 242 235 229 225 223 224 226 228 231 235 237 237 237 234 229 223 217 214 213 213 213 213 212 211 212 213 214 215 218 221 224 227 231 235 238 241 245 249 254 259 263 267 269 270 271 270 269 268
273 273 272 272 272 273 274 274 272 268 261 254 249 247 244 240 234 229 225 223 224 226 227 229 232 235 236 234 230 226 221 216 213 211 211 212 212 212 212 213 215 217 219 221 223 226 229 233 237 241 245 250 254 258 261 263 266 268 269 269 269 269 269
276 276 276 276 277 278 279 278 276 271 265 257 250 245 242 239 234 228 224 223 223 223 225 227 229 232 233 229 225 222 218 215 213 212 210 210 211 212 213 215 217 219 221 224 226 228 232 236 240 244 248 252 256 259 261 263 264 265 266 267 268 269 271
278 279 279 280 281 282 281 281 279 277 273 266 257 249 244 240 235 228 223 222 223 222 224 227 230 230 227 223 220 217 214 212 212 213 213 212 212 213 214 216 218 220 224 227 230 233 236 241 245 248 251 254 257 259 261 263 264 265 267 269 270 272 274
280 280 281 281 281 281 282 282 283 284 281 275 264 255 249 245 240 233 226 224 224 225 226 228 229 227 222 218 217 215 213 213 213 214 214 214 215 216 217 219 221 224 228 232 235 238 242 246 250 253 255 257 259 261 264 266 267 268 270 272 274 275 277
281 282 283 283 282 281 282 283 284 282 277 272 266 258 252 248 245 239 231 226 226 228 229 229 227 224 221 218 217 216 215 216 215 215 215 215 216 218 220 222 225 229 233 237 240 244 248 251 254 257 259 260 262 264 266 268 269 270 271 273 275 277 278
287 286 286 286 284 284 283 283 283 281 277 273 267 258 250 246 243 240 235 231 230 231 231 230 227 224 222 220 220 220 219 219 219 219 218 218 219 221 223 226 230 234 238 243 247 250 253 255 257 260 261 262 263 264 266 268 270 271 272 274 275 277 279
299 297 297 295 291 288 287 285 283 282 280 276 271 261 251 244 241 238 235 233 233 233 232 230 228 226 225 223 223 223 223 223 222 222 221 222 224 226 228 231 235 239 244 248 250 253 255 257 260 261 262 264 264 265 268 270 272 274 275 276 278 279 281
308 307 307 306 301 296 293 289 285 281 279 278 273 264 253 244 240 238 235 232 232 232 232 231 230 229 229 229 228 228 226 225 224 223 223 225 227 230 233 235 238 241 245 249 252 255 257 259 262 263 264 266 267 269 271 273 275 277 278 279 280 281 281
318 317 315 312 308 302 295 289 283 276 274 274 270 263 253 243 238 236 234 234 235 235 236 235 234 232 231 230 229 228 227 225 224 223 223 225 228 231 233 235 237 241 245 249 253 257 259 262 264 265 267 269 271 272 274 274 276 277 278 279 280 280 281
326 326 325 318 312 306 294 282 272 266 265 264 261 253 245 237 232 230 229 230 233 234 235 236 236 234 232 230 228 226 226 225 224 223 224 225 228 231 234 236 239 243 248 252 256 259 261 263 264 266 268 270 272 273 274 274 275 276 276 277 279 280 282
329 332 331 325 320 315 301 282 268 261 258 255 254 251 245 239 234 231 229 228 228 228 229 232 234 234 233 230 227 226 225 224 223 224 226 229 232 235 239 243 247 251 254 256 258 260 261 263 265 267 269 271 272 273 273 274 274 275 276 277 278 279 280